Regional Weather Roundup
Issued by NWS

Home | Current Version | Previous Version | Graphics & Text | Print | Product List | Glossary On
Versions: 1 2 3 4 5 6 7 8 9 10 11 12 13 14 15 16 17 18 19 20 21 22 23 24 25 26 27 28 29 30 31 32 33 34 35 36 37 38 39 40 41 42 43 44 45 46 47 48 49 50
000
ASUS45 KTFX 302004
RWRMT
MONTANA HOURLY WEATHER ROUNDUP
NATIONAL WEATHER SERVICE GREAT FALLS MT
104 PM MST FRI JAN 30 2015

NOTE: "FAIR" INDICATES FEW OR NO CLOUDS BELOW 12000 FEET WITH NO
SIGNIFICANT WEATHER AND/OR OBSTRUCTIONS TO VISIBILITY.

* THESE STATIONS ARE NOT UNDER NWS QUALITY CONTROL. THEY DO NOT
   REPORT WEATHER SUCH AS PRECIPITATION OR FOG.

MTZ001>007-043-302100-
WEST OF THE DIVIDE
CITY           SKY/WX    TMP DP  RH WIND       PRES   REMARKS
KALISPELL      FOG       25  23  92 CALM      30.33F VSB 1/2
MISSOULA       FOG       27  25  92 CALM      30.32F
BUTTE          SUNNY     34  19  54 N3        30.21F
MULLAN PASS    SUNNY     34  19  54 NW3       30.22F
* ANACONDA     SUNNY     36  21  54 N6         N/A   WCI  31
* ESSEX        N/A       31  20  64 S2         N/A
* LINCOLN      N/A       31  17  56 S4         N/A
* LOOKOUT PASS N/A       37  25  62 SE3        N/A
* POLSON       N/A       27  26  96 SE1        N/A
* SEELEY LAKE  N/A       33  20  59 S3         N/A
* THOMP F APT  SUNNY     38  13  36 NW7G19     N/A   WCI  33
* YAAK HILL    N/A       31  29  92 SE2        N/A
$$

MTZ008-052>055-302100-
SOUTHWEST MONTANA
CITY           SKY/WX    TMP DP  RH WIND       PRES   REMARKS
BOZEMAN        PTCLDY    37  27  67 N3        30.22F
DILLON         PTCLDY    36  18  48 SW7       30.20F WCI  30
* W YELLOWSTON PTSUNNY   24  16  71 N2         N/A
* THREE FORKS  SUNNY     39  37  93 N/A        N/A
* BOULDER HILL N/A       39  16  39 S4         N/A
* MONIDA PASS  N/A       16  16 100 W4         N/A
* RAYNOLDS PAS N/A       25  23  92 NW4        N/A
* WHITEHALL    N/A       41  20  43 SW8        N/A
* WISE RIVER   N/A       26  16  66 NW5        N/A   WCI  20
$$

MTZ009>010-012-014-046-048-049-054-302100-
EAST SLOPES AND CENTRAL MONTANA
CITY           SKY/WX    TMP DP  RH WIND       PRES   REMARKS
CUT BANK       PTCLDY    46  19  34 S3        30.15F
GREAT FALLS    SUNNY     46  18  33 SW9       30.17F
HELENA         SUNNY     37  27  67 CALM      30.22F
MALMSTROM AFB  SUNNY     48  18  30 W7        30.17F
* DEARBORN     N/A       45  19  35 S9         N/A
* EAST GLACIER N/A       38  15  39 W20G29     N/A   WCI  28
* MONARCH      N/A       48  11  22 NW1        N/A
* PENDROY      N/A       52   3  13 SE4        N/A
* ROGERS PASS  N/A       33  18  54 S4G12      N/A
* SWEET GRASS  N/A       44  16  32 NW4        N/A
$$

MTZ011-013-016-021-035-040-045-047-050-051-302100-
NORTH CENTRAL MONTANA
CITY           SKY/WX    TMP DP  RH WIND       PRES   REMARKS
HAVRE          PTCLDY    43  21  42 SW6       30.20F
LEWISTOWN      SUNNY     46  12  25 CALM      30.18F
* N BAR RANCH  SUNNY     46  10  23 SE6       30.18F
* CHESTER      N/A       40  23  51 W4         N/A
* DENTON       N/A       46  20  36 SE6        N/A
* GEYSER       N/A       50  11  21 NW2G8      N/A
* JUDITH GAP   N/A       47   8  20 NW5        N/A
* LOMA         N/A       44  28  53 S1         N/A
$$

MTZ017>020-022>027-061-062-302100-
NORTHEAST MONTANA
CITY           SKY/WX    TMP DP  RH WIND       PRES   REMARKS
GLASGOW        SUNNY    N/A N/A N/A VRB3      30.21F
GLENDIVE       SUNNY     45  28  51 N10       30.20F
JORDAN         SUNNY     45  28  51 N7        30.20F
SIDNEY         SUNNY     43  25  49 N8        30.22S
WOLF POINT     SUNNY     39  28  65 SW9       30.22F WCI  33
* BEAVER HILL  N/A       40  28  62 W10        N/A   WCI  34
* CIRCLE       N/A       40  31  70 N/A        N/A
* LINDSAY DVD  N/A       41  28  60 NW6G11     N/A
* NAVAJO       N/A       39  27  62 N11G16     N/A   WCI  32
* SACO         N/A       33  33 100 W4         N/A
$$

MTZ028>042-056>058-302100-
SOUTHCENTRAL AND SOUTHEAST MONTANA
CITY           SKY/WX    TMP DP  RH WIND       PRES   REMARKS
BAKER          SUNNY     43  28  56 NW10      30.18F
BILLINGS       SUNNY     46  21  37 SW9       30.20F
LIVINGSTON     PTCLDY    45  16  31 W12       30.18F
MILES CITY     SUNNY     43  28  56 W7        30.19F
* LAUREL APT   SUNNY     46  19  34 N/A        N/A
* ROUNDUP APT  SUNNY     48  16  28 N/A        N/A
* ALZADA       N/A       47  25  42 NW6G12     N/A
* HYSHAM       N/A       46  15  29 VRB2       N/A
* LAME DEER    N/A       43  19  38 NW6        N/A
* REED POINT   N/A       46  21  37 W4         N/A
* ROSCOE HILL  N/A       44   6  21 NE1G6      N/A
$$

REGIONAL REPORTS...DAKOTAS
CITY           SKY/WX    TMP DP  RH WIND       PRES   REMARKS
WILLISTON      SUNNY     39  27  62 NW10      30.19F WCI  32
DICKINSON      SUNNY     46  27  48 NW15      30.13F
CROSBY         SUNNY     32  28  85 NW13      30.19F WCI  22
WATFORD CITY   SUNNY     37  28  70 NW10      30.17S WCI  30
BISMARCK       SUNNY     45  28  51 W10G16    30.13F
GRAND FORKS    PTSUNNY   30  19  64 S12       30.14F WCI  20
FARGO          SUNNY     30  19  64 S15G25    30.16F WCI  19
BUFFALO SD     SUNNY     50  25  38 W12       30.09F
RAPID CITY     PTCLDY    52  25  35 N18       30.13F
$$

REGIONAL REPORTS...WYOMING/IDAHO/WASHINGTON
CITY           SKY/WX    TMP DP  RH WIND       PRES   REMARKS
GILLETTE       PTCLDY    46  21  37 NW9       30.17F
SHERIDAN       PTCLDY    48  21  34 N5        30.19F
CODY           PTSUNNY   41  21  45 N3        30.18F
YELLOWSTONE LA CLOUDY    10   7  88 CALM      30.21F
SALMON         CLOUDY    28  21  75 CALM      30.33F
MULLAN PASS    SUNNY     34  19  54 NW3       30.22S
SAND POINT     CLOUDY    32  30  92 E3        30.36F
SPOKANE        FOG       30  28  92 E3        30.35F VSB M1/4
$$

REGIONAL REPORTS...ALBERTA
CITY           SKY/WX    TMP DP  RH WIND       PRES   REMARKS
EDMONTON       LGT SNOW  21  18  88 NE10      30.28S WCI  10
$$

REGIONAL REPORTS...SASKATCHEWAN
CITY           SKY/WX    TMP DP  RH WIND       PRES   REMARKS
SWIFT CURRENT  FOG       27  27 100 W5        30.20F VSB 3    WCI  21
MOOSE JAW      FOG       23  21  92 NW17      30.24S VSB 2 1/2 WCI   9

$$



USA.gov is the U.S. government's official web portal to all federal, state and local government web resources and services.